Terminal Aerodrome Forecast
Issued by NWS Knoxville/Tri Cities, TN

Home | Current Version | Previous Version | Text Only | Print | Product List | Glossary On
Versions: 1 2 3 4 5 6 7 8 9 10 11 12 13 14 15 16 17 18 19 20 21 22 23 24 25 26
000
FTUS44 KMRX 192320
TAFCHA
TAF
KCHA 192320Z 2000/2024 01006KT P6SM SCT050 BKN250
     FM200100 01003KT P6SM SCT050 BKN100
     FM200600 02003KT 5SM -RA OVC050
     FM201200 03005KT P6SM OVC035
     FM201500 00000KT P6SM SCT200=

USA.gov is the U.S. government's official web portal to all federal, state and local government web resources and services.